Simultaneous Nadir Overpasses (SNOs) Predictions

Prediction of SNOs between AQUA and NOAA-19 Satellite Orbit:

Table of predicted SNOs for the next 14.0 days since TLE Epoch: 11/12/2022
Index Date (AQUA) Time (AQUA) Lat,Lon (AQUA) SZA (AQUA ) Date (NOAA-19) Time (NOAA-19) Lat,Lon (NOAA-19) SZA (NOAA-19 ) Distance(km) Time Diff (sec)
1 11/13/2022 23:06:34 77.10, 179.76 95.35 11/13/2022 23:05:38 77.09, 179.93 95.35 4.33 56
2 11/13/2022 23:56:00 -77.14, -12.77 84.59 11/13/2022 23:56:35 -77.13, -12.64 84.61 3.54 35
3 11/16/2022 04:39:29 -77.06, -83.32 84.12 11/16/2022 04:38:24 -77.08, -83.24 84.09 2.90 65
4 11/16/2022 05:28:57 77.13, 84.06 95.97 11/16/2022 05:29:24 77.13, 84.23 95.96 4.14 27
5 11/18/2022 10:12:25 77.03, 13.57 96.40 11/18/2022 10:11:13 77.05, 13.49 96.43 2.83 72
6 11/18/2022 11:01:52 -77.12,-179.11 83.50 11/18/2022 11:02:11 -77.09,-179.06 83.53 2.98 19
7 11/20/2022 15:45:16 -76.86, 111.01 83.28 11/20/2022 15:44:06 -76.78, 109.18 83.28 47.04 70
8 11/20/2022 16:34:47 77.08, -82.16 96.97 11/20/2022 16:34:59 77.07, -82.29 96.97 3.17 12
9 11/22/2022 22:07:41 -77.07, 14.66 82.55 11/22/2022 22:07:46 -77.07, 14.59 82.55 1.88 5
10 11/25/2022 03:40:36 77.09, 111.37 97.93 11/25/2022 03:40:32 77.06, 111.45 97.91 3.26 4



Historial Predications of SNOs between AQUA and NOAA-19
